MyTimes logo

TIMES

Webb Imagery

13/02/2010
Cowes Classic
500m Swim / 4.0km Run

(Click on competitor name to view personalised results)

Name
Race #
Category
Team Name
Time
(h:mm:ss)
Avg Speed
km/hr
OAll
Place
Cat
Place
RHODES Jamie#301Senior Male0:20:05"13.4 " 11
ROWE Mark#220Senior Male0:20:48"13.0 " 22
SMITH Ryan#284Senior Male0:21:35"12.5 " 33
ROCOTAS Jonathon#851Team Male0:21:55"12.3 " 41
CLARKSON Mack#294Senior Male0:22:05"12.2 " 54
HEMPEL Stephen#828Team Male0:22:08"12.2 " 62
TREMAYNE Travis#827Team Male0:22:12"12.2 " 73
MEYER Jamie#228Senior Male0:22:30"12.0 " 85
SQUIRES Richard#205Senior Male0:22:34"12.0 " 96
MUIR Dylan#235Senior Male0:22:42"11.9 " 107
VELLIN Marc#302Senior Male0:22:43"11.9 " 118
DICKSON James#823Team Male0:22:45"11.9 " 124
PLUCK Neil#820Team Male0:22:56"11.8 " 135
PLANT Luke#210Senior Male0:23:01"11.7 " 149
MC DONALD Angus#845Team Male0:23:01"11.7 " 156
WACHTER Aurel#3040-49 Male0:23:19"11.6 " 161
ROLLAND Thierry#4140-49 Male0:23:33"11.5 " 172
VERNON Beau#852Team Male0:23:34"11.5 " 187
FLEISNER Rob#6150+ Male0:23:34"11.5 " 191
DEVESON Grace#49Junior Female0:23:38"11.4 " 201
KAYE-HELMOT Georgia#824Team Female0:23:40"11.4 " 211
VERNON Zak#850Team Mixed0:23:46"11.4 " 221
SMITH James#837Team Male0:24:03"11.2 " 238
CONNELL Patrick#67Junior Male0:24:03"11.2 " 241
BILL Greg#8040-49 Male0:24:07"11.2 " 253
PANOPOULOS Matt#812Team Male0:24:11 11.2 269
DORE Brett#213Senior Male0:24:14"11.1 " 2710
MURPHY Justin#848Team Male0:24:22"11.1 " 2810
DRAPAC James#242Senior Male0:24:24"11.1 " 2911
DAVIE Warren#818Team Mixed0:24:25"11.1 " 302
MALIOS Paul#825Team Male0:24:27"11.0 " 3111
BENNETT James#83Junior Male0:24:28"11.0 " 322
JONES Matthew#826Team Male0:24:33"11.0 " 3312
DICKSON Jordyn#822Team Male0:24:36"11.0 " 3413
COGHLAN Jane#836Team Mixed0:24:40"10.9 " 353
HARVEY Michael#208Senior Male0:24:55"10.8 " 3612
DICKSON Jack#50Junior Male0:25:08"10.7 " 373
HOPKINS Beau#811Team Male0:25:09 10.7 3814
PETERS Alana#813Team Mixed0:25:10 10.7 394
HUTCHINSON Richard#313Senior Male0:25:11"10.7 " 4013
CORBETT James#7140-49 Male0:25:11"10.7 " 414
NEYLAND Ethan#18Junior Male0:25:12"10.7 " 424
CROFT Greg#6940-49 Male0:25:13"10.7 " 435
FORREST Neal#815Team Mixed0:25:16 10.7 445
HUTCHINSON Warwick#4440-49 Male0:25:16"10.7 " 456
O'DONOHUE Mark#839Team Mixed0:25:21"10.7 " 466
HOMER Ivan#3440-49 Male0:25:29"10.6 " 477
CONNELL Chelsea#840Team Mixed0:25:32"10.6 " 487
RINGROSE Paul#801Team Male0:25:41 10.5 4915
MILLER Michael#853Team Mixed0:25:52"10.4 " 508
GALBRAITH Dana#7350+ Male0:25:53"10.4 " 512
HOBBS Ben#806Team Mixed0:25:54 10.4 529
FROUDE David#250Senior Male0:25:55"10.4 " 5314
BUTT Chloe#201Senior Female0:25:56"10.4 " 541
FOX Dean#3840-49 Male0:26:00"10.4 " 558
YOUNG Lauren#899Team Mixed0:26:05"10.4 " 5610
BALLARD Chris#809Team Male0:26:14 10.3 5716
THURGOOD Lachlan#280Senior Male0:26:19"10.3 " 5815
WHITE David#5640-49 Male0:26:20"10.3 " 599
MANTEIT Michael#46Junior Male0:26:20"10.3 " 605
DARLETT Julian#312Senior Male0:26:21"10.2 " 6116
BLYTHE Nicole#40Junior Female0:26:23"10.2 " 622
DEVISSER Ryan#243Senior Male0:26:25"10.2 " 6317
MACGILL Fiona#830Team Mixed0:26:27"10.2 " 6411
CROUGH Chris#269Senior Male0:26:28"10.2 " 6518
LEAUMONT Andrew#805Team Mixed0:26:29 10.2 6612
MALIOS Todd#807Team Male0:26:30 10.2 6717
CLAREBROUGH Annika#802Team Female0:26:31 10.2 682
NEYLAND Tara#17Junior Female0:26:31"10.2 " 693
TYLER Mike#450+ Male0:26:35"10.2 " 703
TOKAI Attila#5440-49 Male0:26:37"10.1 " 7110
CLARKSON Anna#291Senior Female0:26:38"10.1 " 722
GRANT Warren#8150+ Male0:26:38"10.1 " 734
BEAUMONT Brett#856Team Male0:26:42"10.1 " 7418
WEBB Danni#303Senior Female0:26:45"10.1 " 753
JUDD Alex#57Junior Male0:26:47"10.1 " 766
BYRNE Stephen#7650+ Male0:26:56"10.0 " 775
TURNER Peter#4850+ Male0:27:02"10.0 " 786
HASBURGH Tom#248Senior Male0:27:04"10.0 " 7919
DEAN Stephen#817Team Male0:27:05"10.0 " 8019
LEGGE Andrew#202Senior Male0:27:10"9.9 " 8120
BRIC John#810Team Male0:27:15 9.9 8220
KEANE Ben#214Senior Male0:27:18"9.9 " 8321
CROFT Baden#70Junior Male0:27:20"9.9 " 847
HUMBERT Cara#821Team Female0:27:23"9.9 " 853
BOND Marcus#264Senior Male0:27:26"9.8 " 8622
ALDERSON Allan#8250+ Male0:27:29"9.8 " 877
MURPHY Kade#829Team Male0:27:31"9.8 " 8821
JONES Simon#219Senior Male0:27:32"9.8 " 8923
GASSON Brenda#841Team Female0:27:35"9.8 " 904
HARRIS Michelle#260Senior Female0:27:36"9.8 " 914
SULLIVAN Matt#12Junior Male0:27:36"9.8 " 928
MORRISON Mark#740-49 Male0:27:39"9.8 " 9311
PRYOR Anthony#268Senior Male0:27:41"9.8 " 9424
MC COY Tony#849Team Mixed0:27:41"9.8 " 9513
COATS Callum#270Senior Male0:27:46"9.7 " 9625
LOVITT Rod#257Senior Male0:27:49"9.7 " 9726
CROWE Damien#6550+ Male0:27:50"9.7 " 988
THRERIAUGHT David#847Team Male0:27:51"9.7 " 9922
STELZER Hermann#816Team Male0:27:51"9.7 " 10023
CANN Lara#207Senior Female0:27:52"9.7 " 1015
MATTHEWS Jack#204Senior Male0:27:53"9.7 " 10227
BONGIORNO Ben#255Senior Male0:27:53"9.7 " 10328
CONNELL Michael#6840-49 Male0:27:55"9.7 " 10412
SCHOLFILED Nick#233Senior Male0:27:56"9.7 " 10529
TERLICH Chris#290Senior Male0:28:03"9.6 " 10630
VITRITTI Karina#276Senior Female0:28:04"9.6 " 1076
MC KENZIE David#272Senior Male0:28:15"9.6 " 10831
BRADEN Michael#27840-49 Male0:28:16"9.6 " 10913
FEILD Cameron#226Senior Male0:28:19"9.5 " 11032
DRYDEN Leigh#842Team Male0:28:19"9.5 " 11124
CAPLE Alex#273Senior Male0:28:24"9.5 " 11233
LUCY Cate#803Team Female0:28:32 9.5 1135
SMITH Dennis#2350+ Male0:28:34"9.5 " 1149
JOHNSTON Molly#854Team Female0:28:35"9.4 " 1156
CHANDLER Jacqui#2540-49 Female0:28:36"9.4 " 1161
STINEAR Tim#834Team Mixed0:28:42"9.4 " 11714
WALTON Matt#230Senior Male0:28:45"9.4 " 11834
DAVIE Krystal#29Junior Female0:28:45"9.4 " 1194
BEANLAND Matt#804Team Mixed0:28:50 9.4 12015
SUTTON Ryan#231Senior Male0:28:51"9.4 " 12135
DAVIE Angie#2840-49 Female0:28:52"9.4 " 1222
JORDAN Thomas#274Senior Male0:29:00"9.3 " 12336
PRYOR Brendan#266Senior Male0:29:00"9.3 " 12437
SHANNON Troy#265Senior Male0:29:03"9.3 " 12538
STREET Matthew#259Senior Male0:29:05"9.3 " 12639
GARGAN Bridget#267Senior Female0:29:15"9.2 " 1277
JUDD Gary#5950+ Male0:29:15"9.2 " 12810
SYMES Jake#285Senior Male0:29:19"9.2 " 12940
DU PLESSIS Georgia#855Team Female0:29:22"9.2 " 1307
PETERSEN Marnie#5Junior Female0:29:23"9.2 " 1315
WOODHOUSE Nigel#306Senior Male0:29:25"9.2 " 13241
KNIGHT Troy#241Senior Male0:29:28"9.2 " 13342
PAYNE Lani#833Team Mixed0:29:31"9.1 " 13416
EAVES Sebastian#308Senior Male0:29:35"9.1 " 13543
CROWE Suzie#271Senior Female0:29:38"9.1 " 1368
WOODWARD Nick#304Senior Male0:29:46"9.1 " 13744
TUDOR David#282Senior Male0:29:49"9.1 " 13845
GRAY Peter#1950+ Male0:29:49"9.1 " 13911
SHANNON Adam#263Senior Male0:29:50"9.1 " 14046
MACLEAN Lynne#7540-49 Female0:29:50"9.1 " 1413
KISS Pam#6250+ Female0:29:50"9.1 " 1421
NEYLAND Glenn#1640-49 Male0:29:55"9.0 " 14314
CAPLE Sally#275Senior Female0:29:56"9.0 " 1449
KLIMAS Zeph#256Senior Male0:30:02"9.0 " 14547
FERGUSON Mitchell#258Senior Male0:30:04"9.0 " 14648
O'RYAN Mick#2250+ Male0:30:05"9.0 " 14712
FOOTE Isabella#832Team Female0:30:06"9.0 " 1488
CROSS Graham#3150+ Male0:30:10"9.0 " 14913
HARRIS Simon#261Senior Male0:30:17"8.9 " 15049
WILDISH Rob#4740-49 Male0:30:17"8.9 " 15115
TYRELL Sarah#846Team Female0:30:21"8.9 " 1529
WEBBER Mark#215Senior Male0:30:23"8.9 " 15350
COX Bill#819Team Male0:30:26"8.9 " 15425
CZEMPINSKI Bree#831Team Female0:30:33"8.8 " 15510
LEWIS Clayton#309Senior Male0:30:36"8.8 " 15651
PEMBERTON Mark#281Senior Male0:30:38"8.8 " 15752
CAIN Greg#3650+ Male0:30:39"8.8 " 15814
EVANS Brad#209Senior Male0:30:48"8.8 " 15953
MATTHEWS Robert#650+ Male0:30:51"8.8 " 16015
SHEEDY Anthony#5540-49 Male0:30:53"8.7 " 16116
KISLER Jenny#206Senior Female0:30:55"8.7 " 16210
JAMES Alycia#307Senior Female0:30:56"8.7 " 16311
ALEXANDER Gregory#249Senior Male0:31:04"8.7 " 16454
MCLEOD Beth#232Senior Female0:31:10"8.7 " 16512
HOWGATE Stacey#253Senior Female0:31:13"8.6 " 16613
MANNING Simon#1140-49 Male0:31:15"8.6 " 16717
MILES Dean#262Senior Male0:31:19"8.6 " 16855
HOOK Cam#1540-49 Male0:31:20"8.6 " 16918
DUYVESTYN Brendan#8440-49 Male0:31:20"8.6 " 17019
BURHIOP Matt#314Senior Male0:31:25"8.6 " 17156
COLLISON Natasha#296Senior Female0:31:26"8.6 " 17214
THURGOOD Jordan#279Senior Male0:31:27"8.6 " 17357
WARD Nicholas#227Senior Male0:31:29"8.6 " 17458
KIRKWOOD Scott#3940-49 Male0:31:29"8.6 " 17520
BURKE Richard#305Senior Male0:31:34"8.6 " 17659
BAIRD Olivia#251Senior Female0:31:35"8.5 " 17715
WHELLER Laurie#5150+ Male0:31:35"8.5 " 17816
CONELL Caitlin#843Team Female0:31:38"8.5 " 17911
BELL Ashlea#63Junior Male0:31:40"8.5 " 1809
DODD Jennifer#250+ Female0:31:47"8.5 " 1812
MORA Mauricio#203Senior Male0:31:49"8.5 " 18260
MAY Richard#8540-49 Male0:32:04"8.4 " 18321
HODGSON Cheryl#311Senior Female0:32:07"8.4 " 18416
CAPLE Eliza#277Senior Female0:32:10"8.4 " 18517
HIBBLE Jenny#350+ Female0:32:10"8.4 " 1863
BAILEY Annie#2050+ Female0:32:11"8.4 " 1874
WEBBER Neil#7940-49 Male0:32:16"8.4 " 18822
VAN DER NAGEL Helen#2150+ Female0:32:20"8.4 " 1895
MC MIKKING Hamish#239Senior Male0:32:25"8.3 " 19061
CAMERON Jane#5840-49 Female0:32:29"8.3 " 1914
MURRAY Ian#236Senior Male0:32:38"8.3 " 19262
HODGSON Murray#310Senior Male0:32:40"8.3 " 19363
AYERS Chris#240Senior Male0:32:55"8.2 " 19464
CHASTON Pete#4550+ Male0:33:04"8.2 " 19517
CONNELL Carolyn#844Team Female0:33:11"8.1 " 19612
DUGGAN Peter#3350+ Male0:33:18"8.1 " 19718
STEWART Jodie#234Senior Female0:33:19"8.1 " 19818
MCBAIN Gabrielle#222Senior Female0:33:28"8.1 " 19919
BRADELY Nicholas#295Senior Male0:33:31"8.1 " 20065
ZIMMERMAN Kirrily#244Senior Female0:33:34"8.0 " 20120
FITZGERALD Rick#4350+ Male0:34:12"7.9 " 20219
LAURENCE Renee#286Senior Female0:34:15"7.9 " 20321
MARSHALL Sarah#237Senior Female0:34:26"7.8 " 20422
JANSZ Julie#6040-49 Female0:34:33"7.8 " 2055
MILLS Caroline#297Senior Female0:34:43"7.8 " 20623
MCBAIN Simon#221Senior Male0:34:46"7.8 " 20766
CHENCO Carol#5250+ Female0:34:48"7.8 " 2086
WEBBER Simone#7840-49 Female0:35:03"7.7 " 2096
CHENCO Tony#5350+ Male0:35:04"7.7 " 21020
CAPLE David#838Team Mixed0:35:50"7.5 " 21117
CARTER Dean#1350+ Male0:35:59"7.5 " 21221
ANGLIM Bernard#3250+ Male0:36:23"7.4 " 21322
DALLINGER Brian#6650+ Male0:37:01"7.3 " 21423
SCOTT Amelia#254Senior Female0:37:20"7.2 " 21524
EGAN Holly#835Team Female0:37:32"7.2 " 21613
TAYLOR Kevin#283Senior Male0:37:44"7.2 " 21767
SHULVER Stephanie#252Senior Female0:38:36"7.0 " 21825
LEECH David#217Senior Male0:38:58"6.9 " 21968
AVAGE Ian#245Senior Male0:39:15"6.9 " 22069
FITZGERALD Megan#298Senior Female0:42:13"6.4 " 22126
LOCKWOOD Andrea#288Senior Female0:43:50"6.2 " 22227
STERN Kate#287Senior Female0:43:58"6.1 " 22328
JENSEN Tina#299Senior Female0:48:25"5.6 " 22429
KONTOGOURIS Earlene#6450+ Female0:52:40"5.1 " 2257